"Pseudo-MPEC" for P117YzN

Created 2020 Oct 19 9:07:30 UT using Find_Orb

Click here for an explanation of pseudo-MPECs

 
 Astrometry: 
     P117YzN  C2020 10 13.33907 02 42 15.92 +23 33 45.4    ~AJ77       VNEOCPG96
     P117YzN  C2020 10 13.34437 02 42 15.14 +23 33 45.7    ~AJ77       VNEOCPG96
     P117YzN  C2020 10 13.34960 02 42 14.54 +23 33 46.8    ~AJ77       VNEOCPG96
     P117YzN  C2020 10 156dc7*IxZFi`iy$,5GID#Astrometry[xwf:Kjp=N-?8J0BsbWsR=F51
     P117YzN  C2020 10 15bQuogvreSS=P@Wredacted;Vd's84lQ^M2click?here*+q!HHv=F51
     P117YzN  C2020 10 15iL5T%forhKVb(fLd9?x+Jexplanation7aw#(bQ]0TZMC,Rf_#vGF51
     P117YzN ^C2020 10 18.37009302 30 20.624+23 32 45.11   ~AIL7 21.77GVNEOCP568
     P117YzN ^C2020 10 18.37294902 30 20.200+23 32 44.93   ~AIL7 21.70GVNEOCP568
     P117YzN KC2020 10 19.23943002 28 15.83 +23 31 24.8    ~AJ67 22.60GVNEOCPV06
     P117YzN KC2020 10 19.24592202 28 14.85 +23 31 23.9    ~AJ67 21.61GVNEOCPV06

Station data:
(568) Mauna Kea  (N19.826116 W155.472200)  US/Hawaii.
(F51) Pan-STARRS 1, Haleakala  (N20.707235 W156.255910)  US/Hawaii.
   Observers N. Primak, A. Schultz, S. Watters, J. Thiel, T. Goggia. Measurer
   PS1 Science Consortium. 1.8-m Ritchey-Chrétien + CCD.
(G96) Mt. Lemmon Survey  (N32.442754 W110.788720)  US/Arizona.  Observers T.
   A. Pruyne, B. M. Africano, E. J. Christensen, G. A. Farneth, D. C. Fuls,
   A. R. Gibbs, A. D. Grauer, H. Gröller, J. A. Johnson, R. A. Kowalski, S.
   M. Larson, G. J. Leonard, D. Rankin, R. L. Seaman, F. C. Shelly. 1.5-m
   reflector + 10K CCD.
(V06) Catalina Sky Survey-Kuiper  (N32.416847 W110.732550)  US/Arizona.
   Observers T. A. Pruyne, B. M. Africano, E. J. Christensen, G. A. Farneth,
   D. C. Fuls, A. R. Gibbs, A. D. Grauer, H. Gröller, J. A. Johnson, R. A.
   Kowalski, S. M. Larson, G. J. Leonard, D. Rankin, R. L. Seaman, F. C.
   Shelly. 1.55-m reflector + CCD.

Orbital elements:  P117YzN
   Perihelion 2020 Jun 1.299743 +/- 0.659 TT =  7:11:37 (JD 2459001.799743)
Epoch 2020 Oct 19.0 TT = JDT 2459141.5   Earth MOID: 0.0832   Ma: 0.0487
M  74.85948868 +/- 0.35             (J2000 ecliptic)          AutoNEOCP
n   0.53585791 +/- 0.00156          Peri.  263.83394 +/- 0.6
a   1.50119213 +/- 0.00291          Node     9.79254 +/- 0.17
e   0.3827906 +/- 0.00308           Incl.    8.30908 +/- 0.09
P   1.84/671.81d           H 21.7   G  0.15   U  8.4  
q 0.92654978 +/- 0.00325    Q 2.07583449 +/- 0.00829
From 10 observations 2020 Oct. 13-19; mean residual 0".43
Residuals in arcseconds: 
201013 G96  .68-  .26-    201015 F51  .04+  .07+    201019 V06  .15+  .18+    
201013 G96  .78-  .27-    201015 F51  .10+  .02+    201019 V06  .09-  .19-    
201013 G96  1.4+  .53+    201018 568  .06-  .01+    
201015 F51  .09-  .09-    201018 568  .04-  .00     

Ephemerides (geocentric):
Date (UTC) HH   RA              Dec         delta   r     elong  mag " sig PA
---- -- -- --  -------------   -----------  ------ ------ -----  --- ---- ---
2020 10 19 09  02 27 55.865   +23 31 13.97  .59211 1.5696 161.9 22.2 .220  14
2020 10 19 10  02 27 49.889   +23 31 09.66  .59223 1.5698 162.0 22.2 .233  12
2020 10 19 11  02 27 43.913   +23 31 05.31  .59235 1.5700 162.0 22.2 .246  10
2020 10 19 12  02 27 37.938   +23 31 00.91  .59247 1.5702 162.1 22.2 .259   9
2020 10 19 13  02 27 31.963   +23 30 56.47  .59259 1.5704 162.1 22.2 .272   8
2020 10 19 14  02 27 25.989   +23 30 51.99  .59271 1.5706 162.2 22.2 .286   7
2020 10 19 15  02 27 20.015   +23 30 47.46  .59283 1.5709 162.2 22.2 .300   5
2020 10 19 16  02 27 14.041   +23 30 42.90  .59295 1.5711 162.3 22.2 .315   4
2020 10 19 17  02 27 08.068   +23 30 38.29  .59307 1.5713 162.3 22.2 .329   4
2020 10 19 18  02 27 02.096   +23 30 33.64  .59319 1.5715 162.4 22.2 .344   3
2020 10 19 19  02 26 56.124   +23 30 28.95  .59331 1.5717 162.4 22.2 .359   2
2020 10 19 20  02 26 50.153   +23 30 24.21  .59343 1.5719 162.5 22.2 .374   1
2020 10 19 21  02 26 44.183   +23 30 19.44  .59356 1.5721 162.5 22.2 .389   0
2020 10 19 22  02 26 38.213   +23 30 14.62  .59368 1.5723 162.6 22.2 .405 179
2020 10 19 23  02 26 32.244   +23 30 09.76  .59380 1.5726 162.6 22.2 .421 179
2020 10 20 00  02 26 26.275   +23 30 04.86  .59393 1.5728 162.7 22.2 .437 178
2020 10 20 01  02 26 20.307   +23 29 59.92  .59405 1.5730 162.7 22.2 .453 178
2020 10 20 02  02 26 14.340   +23 29 54.93  .59417 1.5732 162.8 22.2 .470 177
2020 10 20 03  02 26 08.374   +23 29 49.91  .59430 1.5734 162.8 22.2 .487 176
2020 10 20 04  02 26 02.408   +23 29 44.84  .59442 1.5736 162.9 22.2 .503 176
2020 10 20 05  02 25 56.444   +23 29 39.73  .59455 1.5738 163.0 22.2 .521 175
2020 10 20 06  02 25 50.480   +23 29 34.58  .59468 1.5740 163.0 22.2 .538 175
2020 10 20 07  02 25 44.516   +23 29 29.39  .59480 1.5743 163.1 22.2 .556 174
2020 10 20 08  02 25 38.554   +23 29 24.16  .59493 1.5745 163.1 22.2 .573 174
2020 10 20 09  02 25 32.592   +23 29 18.88  .59506 1.5747 163.2 22.2 .591 173
2020 10 20 10  02 25 26.632   +23 29 13.57  .59518 1.5749 163.2 22.2 .609 173
2020 10 20 11  02 25 20.672   +23 29 08.21  .59531 1.5751 163.3 22.2 .628 173
2020 10 20 12  02 25 14.713   +23 29 02.82  .59544 1.5753 163.3 22.2 .646 172
2020 10 20 13  02 25 08.755   +23 28 57.38  .59557 1.5755 163.4 22.2 .665 172
2020 10 20 14  02 25 02.798   +23 28 51.90  .59570 1.5757 163.4 22.2 .684 171
2020 10 20 15  02 24 56.842   +23 28 46.38  .59583 1.5759 163.5 22.2 .703 171
2020 10 20 16  02 24 50.887   +23 28 40.82  .59596 1.5762 163.5 22.2 .723 171
2020 10 20 17  02 24 44.933   +23 28 35.22  .59609 1.5764 163.6 22.2 .742 170
2020 10 20 18  02 24 38.980   +23 28 29.58  .59622 1.5766 163.6 22.2 .762 170
2020 10 20 19  02 24 33.028   +23 28 23.90  .59635 1.5768 163.7 22.2 .782 170
2020 10 20 20  02 24 27.077   +23 28 18.17  .59648 1.5770 163.7 22.2 .802 169
2020 10 20 21  02 24 21.127   +23 28 12.41  .59661 1.5772 163.8 22.2 .822 169
2020 10 20 22  02 24 15.179   +23 28 06.61  .59675 1.5774 163.8 22.2 .843 169
2020 10 20 23  02 24 09.231   +23 28 00.76  .59688 1.5776 163.9 22.2 .864 168
2020 10 21 00  02 24 03.284   +23 27 54.88  .59701 1.5778 163.9 22.2 .885 168
2020 10 21 01  02 23 57.339   +23 27 48.96  .59715 1.5781 164.0 22.2 .906 168
2020 10 21 02  02 23 51.395   +23 27 42.99  .59728 1.5783 164.0 22.2 .927 167
2020 10 21 03  02 23 45.452   +23 27 36.99  .59741 1.5785 164.1 22.2 .949 167
2020 10 21 04  02 23 39.510   +23 27 30.94  .59755 1.5787 164.1 22.2 .970 167
2020 10 21 05  02 23 33.570   +23 27 24.86  .59768 1.5789 164.2 22.2 0.99 167
2020 10 21 06  02 23 27.630   +23 27 18.74  .59782 1.5791 164.2 22.2 1.01 166
2020 10 21 07  02 23 21.692   +23 27 12.57  .59795 1.5793 164.3 22.2 1.04 166
2020 10 21 08  02 23 15.756   +23 27 06.37  .59809 1.5795 164.3 22.2 1.06 166